Change the Weather History Date:

Monday, February 13, 2012

  Actual Average Record
Temperature  
Mean Temperature 36 °F 32 °F  
Max Temperature 45 °F 44 °F 71 °F (1954)
Min Temperature 26 °F 19 °F -23 °F (1905)
Degree Days  
Heating Degree Days 29 33  
Month to date heating degree days 478 441  
Since 1 July heating degree days 3751 4084  
Cooling Degree Days 0 0  
Month to date cooling degree days 0 0  
Year to date cooling degree days 0 0  
Moisture  
Dew Point 24 °F    
Average Humidity 63    
Maximum Humidity 81    
Minimum Humidity 45    
Precipitation  
Precipitation T in 0.01 in 0.21 in (1931)
Month to date precipitation 0.22 0.13  
Year to date precipitation 0.24 0.45  
Snow  
Snow T in 0.20 in 2.50 in (1902)
Month to date snowfall 3.1 2.3  
Since 1 July snowfall 19.9 21.4  
Snow Depth 0.00 in    
Sea Level Pressure  
Sea Level Pressure 29.75 in    
Wind  
Wind Speed 7 mph (NNE)    
Max Wind Speed 18 mph    
Max Gust Speed 21 mph    
Visibility 10 miles    
Events      
T = Trace of Precipitation, MM = Missing Value Source: NWS Daily Summary

Daily Weather History Graph

Daily Weather History Graph

Search for Another Location

Airport or City:

Trip Planner

Search our weather history database for the weather conditions in past years. The results will help you decide how hot, cold, wet, or windy it might be!

Date:

Astronomy

Feb. 13, 2012 Rise Set
Actual Time 6:52 AM MST 5:33 PM MST
Civil Twilight 6:25 AM MST 6:01 PM MST
Nautical Twilight 5:54 AM MST 6:32 PM MST
Astronomical Twilight 5:23 AM MST 7:03 PM MST
Moon No Moon Rise 9:58 AM MST (2/13)
Length of Visible Light 11h 35m
Length of Day
10h 40m
Waning Gibbous, 61% of the Moon is Illuminated
Feb 13
Waning Gibbous
Feb 14
Last Quarter
Feb 21
New
Feb 29
First Quarter
Mar 8
Full

Hourly Weather History & Observations

Time (MST) Temp. Windchill Dew Point Humidity Pressure Visibility Wind Dir Wind Speed Gust Speed Precip Events Conditions
12:54 AM 32.0 °F 22.5 °F 26.1 °F 79% 29.68 in 10.0 mi North 12.7 mph - N/A   Partly Cloudy
1:54 AM 33.1 °F 26.9 °F 25.0 °F 72% 29.67 in 10.0 mi WNW 6.9 mph - N/A   Clear
2:54 AM 33.1 °F 26.1 °F 24.1 °F 70% 29.68 in 10.0 mi NW 8.1 mph - N/A   Partly Cloudy
3:54 AM 32.0 °F 27.5 °F 25.0 °F 75% 29.66 in 10.0 mi NNW 4.6 mph - N/A   Partly Cloudy
4:54 AM 30.0 °F 22.4 °F 23.0 °F 75% 29.70 in 10.0 mi North 8.1 mph - N/A   Partly Cloudy
5:54 AM 28.9 °F 21.1 °F 23.0 °F 78% 29.72 in 10.0 mi NNW 8.1 mph - N/A   Partly Cloudy
6:54 AM 28.9 °F 19.8 °F 23.0 °F 78% 29.74 in 10.0 mi NNW 10.4 mph - N/A   Partly Cloudy
7:54 AM 30.0 °F 25.2 °F 24.1 °F 79% 29.77 in 10.0 mi NNW 4.6 mph - N/A   Partly Cloudy
8:54 AM 36.0 °F 30.3 °F 28.0 °F 73% 29.77 in 10.0 mi NNW 6.9 mph - N/A   Scattered Clouds
9:54 AM 41.0 °F 38.0 °F 27.0 °F 57% 29.72 in 10.0 mi Variable 4.6 mph - N/A   Partly Cloudy
10:54 AM 39.9 °F 34.5 °F 27.0 °F 60% 29.73 in 10.0 mi NE 8.1 mph - N/A   Scattered Clouds
11:54 AM 45.0 °F 40.6 °F 26.1 °F 48% 29.70 in 10.0 mi North 8.1 mph - N/A   Scattered Clouds
12:54 PM 44.1 °F 38.6 °F 25.0 °F 47% 29.70 in 10.0 mi North 10.4 mph - N/A   Scattered Clouds
1:54 PM 43.0 °F 39.5 °F 25.0 °F 49% 29.70 in 10.0 mi Variable 5.8 mph - N/A   Scattered Clouds
2:54 PM 42.1 °F 37.7 °F 25.0 °F 51% 29.70 in 10.0 mi SW 6.9 mph - N/A   Mostly Cloudy
3:54 PM 39.9 °F 33.4 °F 25.0 °F 55% 29.74 in 10.0 mi East 10.4 mph - 0.00 in   Mostly Cloudy
4:54 PM 37.9 °F 32.7 °F 24.1 °F 57% 29.78 in 10.0 mi East 6.9 mph - N/A   Scattered Clouds
5:54 PM 35.1 °F 31.0 °F 23.0 °F 61% 29.82 in 10.0 mi East 4.6 mph - N/A   Scattered Clouds
6:54 PM 32.0 °F - 21.9 °F 66% 29.85 in 10.0 mi Calm Calm - N/A   Partly Cloudy
7:54 PM 30.0 °F 24.1 °F 21.0 °F 69% 29.87 in 10.0 mi SE 5.8 mph - N/A   Scattered Clouds
8:54 PM 28.9 °F 22.8 °F 23.0 °F 78% 29.85 in 10.0 mi SSE 5.8 mph - N/A   Scattered Clouds
9:54 PM 27.0 °F 21.6 °F 21.9 °F 81% 29.86 in 10.0 mi ESE 4.6 mph - N/A   Scattered Clouds
10:54 PM 26.1 °F 16.8 °F 21.0 °F 81% 29.86 in 10.0 mi ENE 9.2 mph - N/A   Scattered Clouds
11:54 PM 28.0 °F 22.8 °F 21.0 °F 75% 29.81 in 10.0 mi NE 4.6 mph - N/A   Scattered Clouds